Погода Ивано-Франковск

Поиск расширенной информации на нашем сайте:

Полезная информация:

Новости сайта



02.01.2020
Опубликован Долгосрочный прогноз погоды по городам России и ближнего зарубежья на январь 2020 года.
Карты: Прогноз на январь и февраль 2020 года, Сравнение прогнозируемой аномалии приземной температуры воздуха на январь 2020 года по разным моделям.




Погода Ивано-Франковск - сегодня

Время (UTC), дата Ветер
(°,м/с) 
Видим.   Явления Облачность Т
(°С)
Тd
(°С)
f(%) Тe
(°С)
Pmin
(гПа)
dP
(гПа)
Po
(мм)
O2
(г/м3)
Тmin Tmax R s Состояние
почвы
21 22.10.20 тихо ()   3200 м  дымка  4/0 верхняя 
[Ci fib]
+6.3 +5.6 95 +6  1020.6  -0.1  740  290           
00 23.10.20 тихо ()   5000 м  дымка  ясно 
+3.5 +3 97 +4  1020.3  -0.6  739  294           
03 23.10.20 290 (З) 6000 м  дымка  ясно 
+1.6 +1.1 96 +2  1020.3  -0.3  739  296           
06 23.10.20 тихо ()   10 км    4/0 верхняя 
[Ci fib]
+2.8 +2.3 97 +3  1019.8  -0.3  739  294  +1.2         
09 23.10.20 тихо ()   10 км    4/0 средняя 
[Ac trans]
+15.2 +8.1 63 +15  1017.5  -0.7  738  280           
12 23.10.20 тихо ()   20000 м    8/0 средняя 
[Ac trans]
+18 +7.2 49 +18  1016.1  -1.1  738  278           
15 23.10.20 тихо ()   15000 м    8/0 средняя, верхняя 
[Ac trans|Ci fib]
+15.9 +8.7 62 +16  1015.6  -0.7  737  279           
18 23.10.20 тихо ()   6000 м  дымка  4/0 средняя 
[Ac trans]
+10 +8.4 90 +10  1016.4  0.1  737  285    +19.1       
21 23.10.20 230 (ЮЗ) 4200 м  дымка  4/0 верхняя 
[Ci fib]
+6.8 +6.4 97 +8  1016.1  -0.7  737  289           
00 24.10.20 тихо ()   3700 м  дымка  ясно 
+7.8 +7.4 97 +8  1015  -0.9  736  287           
03 24.10.20 тихо ()   5000 м  дымка  5/0 верхняя 
[Ci fib]
+6.3 +6.1 99 +6  1014.5  -0.7  735  289           
06 24.10.20 тихо ()   6000 м  дымка  6/0 средняя, верхняя 
[Ac trans|Ci fib]
+6.7 +6.3 97 +7  1015  0.5  736  288  +5         
09 24.10.20 тихо ()   20000 м    8/0 средняя 
[Ac trans]
+13.4 +9.7 78 +15  1014.5  -0.4  736  281           
12 24.10.20 тихо ()   20000 м    9/0 средняя 
[Ac trans]
+17.2 +10.3 64 +19  1014.2  0.1  736  277           
15 24.10.20 тихо ()   20000 м    9/0 средняя 
[Ac trans]
+16.7 +11 69 +20  1015  0.7  737  278           
18 24.10.20 320 (СЗ) 20000 м    9/9 1500 м 
[Sc]
+15 +10.9 76 +18  1016.8  1.6  738  280    +17.8       
21 24.10.20 240 (ЮЗ) 15000 м    9/9 1000 м 
[Sc]
+13.3 +10.8 85 +18  1018  739  282           
00 25.10.20 тихо ()   4300 м  дымка  9/5 1000 м средняя 
[Sc|Ac trans]
+11.3 +10.1 92 +13  1018.2  -0.1  739  284           
03 25.10.20 тихо ()   1900 м  дымка  10/10 330 м 
[St]
+8.5 +7.9 96 +9  1018.5  739  287           
06 25.10.20 тихо ()   2300 м  слаб. дождь  10/9 300 м средняя 
[Frnb|As op]
+10.2 +9.8 97 +11  1018.7  0.4  739  285  +8.3    0.0     
09 25.10.20 100 (В) 6000 м  слаб. ливневой дождь  10/10 210 м кучево-дожд. 
[Cb cap]
+11.4 +10.8 96 +14  1018  -0.6  738  284           
12 25.10.20 090 (В) 3800 м  слаб. ливневой дождь  10/10 180 м кучево-дожд. 
[Cb cap]
+11.8 +11.4 97 +15  1016.4  -1.5  737  283         
15 25.10.20 100 (В) 6000 м  дымка{ливн. осадки}  10/10 210 м 
[St]
+12.1 +11.5 96 +16  1015.6  -0.7  737  282           
18 25.10.20 110 (В) 4500 м  дымка{ливн. осадки}  10/10 180 м 
[St]
+12.2 +11.6 96 +16  1015.6  737  282    +12.3     
21 25.10.20 110 (В) 4200 м  дымка  10/10 210 м 
[St]
+12.5 +11.9 96 +16  1015.1  -0.4  737  281           
Время (UTC), дата Ветер
(°,м/с) 
Видим.   Явления Облачность Т
(°С)
Тd
(°С)
f(%) Тe
(°С)
Pmin
(гПа)
dP
(гПа)
Po
(мм)
O2
(г/м3)
Тmin Tmax R s Состояние
почвы

Для получения пояснительной информации подведите курсор к названию столбца.

ПОГОДА Ивано-Франковск - архив

Всё, что Вы хотите узнать о погоде Ивано-Франковск - удобно и подробно!

Выберите нужную дату (начиная с 1 января 2019* года) и нажмите кнопку "Найти".
Будут отображены архивные сводки погоды по пункту Ивано-Франковск, начиная с указанной даты.


Отображать данные в формате CSV (для использования в таблицах Excel)


Внимание! Наш архив погоды предназначен исключительно для личного некоммерческого использования в познавательных целях. Если Вам необходимы официальные справки о состоянии погоды (для производственных, юридических, коммерческих и т.п. целей), обращайтесь в органы Росгидромета.

*Примечание: данная дата относится к архиву по метеостанциям СССР (Россия, СНГ, Балтия).
Архив по метеостанциям Зарубежной Европы и Азии (кроме Китая) хранится 10 дней, по другим регионам земного шара (Китай, Африка, Америка, Австралия, Океания) - 1 день.

Ивано-Франковск - район местоположения метеостанции


Название, широта, долгота, высота метеостанции:
Ивано-Франковск 49°ш. 24.4°д. 280 м над ур. моря [Украина]

Дополнительная информация

В oтличие oт бoльшинства пoгoдных сайтoв мы публикуем пoдрoбную метеoинфoрмацию в детальнoм прoфессиoнальнoм фoрмате.

Характеристики температуры и влажнoсти вoздуха измеряются на высoте 2 м в тени вдали oт зданий и деревьев.
Скoрoсть ветра измеряется на высoте 10 м (на урoвне рoста челoвека скoрoсть ветра ниже в 1.5-2 раза). Если метеoстанция нахoдится в гoрoде или в лесу, тo скoрoсть ветра занижена на 2-4 м/с пo сравнению с oткрытым местoм. Скoрoсть ветра над акватoриями крупных рек и oзёр, а также на вершинах хoлмoв на 2-5 м/с выше, чем в oбычных услoвиях.
Атмoсфернoе давление в разных тoчках местнoсти мoжет значительнo oтличаться oт давления на метеoстанции, в зависимoсти oт услoвий рельефа (при пoдъёме на 10 м давление пoнижается примернo на 1 мм рт.ст.).